Year,Month,Day,Hour,Minute,Value (Times are PST for windspeed in km/hr)
2014,07,26,00,00,0.00
2014,07,26,00,01,0.00
2014,07,26,00,02,0.00
2014,07,26,00,03,0.00
2014,07,26,00,04,0.00
2014,07,26,00,05,0.00
2014,07,26,00,06,0.00
2014,07,26,00,07,0.00
2014,07,26,00,08,0.00
2014,07,26,00,09,0.00
2014,07,26,00,10,0.00
2014,07,26,00,11,0.00
2014,07,26,00,12,0.00
2014,07,26,00,13,0.00
2014,07,26,00,14,0.00
2014,07,26,00,15,0.00
2014,07,26,00,16,0.00
2014,07,26,00,17,0.00
2014,07,26,00,18,0.00
2014,07,26,00,19,0.00
2014,07,26,00,20,0.00
2014,07,26,00,21,0.00
2014,07,26,00,22,0.00
2014,07,26,00,23,0.00
2014,07,26,00,24,0.00
2014,07,26,00,25,0.00
2014,07,26,00,26,0.00
2014,07,26,00,27,0.00
2014,07,26,00,28,0.00
2014,07,26,00,29,0.00
2014,07,26,00,30,0.00
2014,07,26,00,31,0.00
2014,07,26,00,32,0.00
2014,07,26,00,33,0.00
2014,07,26,00,34,0.00
2014,07,26,00,35,0.00
2014,07,26,00,36,0.00
2014,07,26,00,37,0.00
2014,07,26,00,38,0.00
2014,07,26,00,39,0.00
2014,07,26,00,40,0.00
2014,07,26,00,41,0.00
2014,07,26,00,42,0.00
2014,07,26,00,43,0.00
2014,07,26,00,44,0.00
2014,07,26,00,45,0.00
2014,07,26,00,46,0.00
2014,07,26,00,47,0.00
2014,07,26,00,48,0.00
2014,07,26,00,49,0.00
2014,07,26,00,50,0.00
2014,07,26,00,51,0.00
2014,07,26,00,52,0.00
2014,07,26,00,53,0.00
2014,07,26,00,54,0.00
2014,07,26,00,55,0.00
2014,07,26,00,56,0.00
2014,07,26,00,57,0.00
2014,07,26,00,58,0.00
2014,07,26,00,59,0.00
2014,07,26,01,00,0.00
2014,07,26,01,01,0.00
2014,07,26,01,02,0.00
2014,07,26,01,03,0.00
2014,07,26,01,04,0.00
2014,07,26,01,05,0.00
2014,07,26,01,06,0.00
2014,07,26,01,07,0.00
2014,07,26,01,08,0.00
2014,07,26,01,09,0.00
2014,07,26,01,10,0.00
2014,07,26,01,11,0.00
2014,07,26,01,12,0.00
2014,07,26,01,13,0.00
2014,07,26,01,14,0.00
2014,07,26,01,15,0.00
2014,07,26,01,16,0.00
2014,07,26,01,17,0.00
2014,07,26,01,18,0.00
2014,07,26,01,19,0.00
2014,07,26,01,20,0.00
2014,07,26,01,21,0.00
2014,07,26,01,22,0.00
2014,07,26,01,23,0.00
2014,07,26,01,24,0.00
2014,07,26,01,25,0.00
2014,07,26,01,26,0.00
2014,07,26,01,27,0.00
2014,07,26,01,28,0.00
2014,07,26,01,29,0.00
2014,07,26,01,30,0.00
2014,07,26,01,31,0.00
2014,07,26,01,32,0.00
2014,07,26,01,33,0.00
2014,07,26,01,34,0.00
2014,07,26,01,35,0.00
2014,07,26,01,36,0.00
2014,07,26,01,37,0.00
2014,07,26,01,38,0.00
2014,07,26,01,39,0.00
2014,07,26,01,40,0.00
2014,07,26,01,41,0.00
2014,07,26,01,42,0.00
2014,07,26,01,43,0.00
2014,07,26,01,44,0.00
2014,07,26,01,45,0.00
2014,07,26,01,46,0.00
2014,07,26,01,47,0.00
2014,07,26,01,48,0.00
2014,07,26,01,49,0.00
2014,07,26,01,50,0.00
2014,07,26,01,51,0.00
2014,07,26,01,52,0.00
2014,07,26,01,53,0.00
2014,07,26,01,54,0.00
2014,07,26,01,55,0.00
2014,07,26,01,56,0.00
2014,07,26,01,57,0.00
2014,07,26,01,58,0.00
2014,07,26,01,59,0.00
2014,07,26,02,00,0.00
2014,07,26,02,01,0.00
2014,07,26,02,02,0.00
2014,07,26,02,03,0.00
2014,07,26,02,04,0.00
2014,07,26,02,05,0.00
2014,07,26,02,06,0.00
2014,07,26,02,07,0.00
2014,07,26,02,08,0.00
2014,07,26,02,09,0.00
2014,07,26,02,10,0.00
2014,07,26,02,11,0.00
2014,07,26,02,12,0.00
2014,07,26,02,13,0.00
2014,07,26,02,14,0.00
2014,07,26,02,15,0.00
2014,07,26,02,16,0.00
2014,07,26,02,17,0.00
2014,07,26,02,18,0.00
2014,07,26,02,19,0.00
2014,07,26,02,20,0.00
2014,07,26,02,21,0.00
2014,07,26,02,22,0.00
2014,07,26,02,23,0.00
2014,07,26,02,24,0.00
2014,07,26,02,25,0.00
2014,07,26,02,26,0.00
2014,07,26,02,27,0.00
2014,07,26,02,28,0.00
2014,07,26,02,29,0.00
2014,07,26,02,30,0.00
2014,07,26,02,31,0.00
2014,07,26,02,32,0.00
2014,07,26,02,33,0.00
2014,07,26,02,34,0.00
2014,07,26,02,35,0.00
2014,07,26,02,36,0.00
2014,07,26,02,37,0.00
2014,07,26,02,38,0.00
2014,07,26,02,39,0.00
2014,07,26,02,40,0.00
2014,07,26,02,41,0.00
2014,07,26,02,42,0.00
2014,07,26,02,43,0.00
2014,07,26,02,44,0.00
2014,07,26,02,45,0.00
2014,07,26,02,46,0.00
2014,07,26,02,47,0.00
2014,07,26,02,48,0.00
2014,07,26,02,49,0.00
2014,07,26,02,50,0.00
2014,07,26,02,51,0.00
2014,07,26,02,52,0.00
2014,07,26,02,53,0.00
2014,07,26,02,54,0.00
2014,07,26,02,55,0.00
2014,07,26,02,56,0.00
2014,07,26,02,57,0.00
2014,07,26,02,58,0.00
2014,07,26,02,59,0.00
2014,07,26,03,00,0.00
2014,07,26,03,01,0.00
2014,07,26,03,02,0.00
2014,07,26,03,03,0.00
2014,07,26,03,04,0.00
2014,07,26,03,05,0.00
2014,07,26,03,06,0.00
2014,07,26,03,07,0.00
2014,07,26,03,08,0.00
2014,07,26,03,09,0.00
2014,07,26,03,10,0.00
2014,07,26,03,11,0.00
2014,07,26,03,12,0.00
2014,07,26,03,13,0.00
2014,07,26,03,14,0.00
2014,07,26,03,15,0.00
2014,07,26,03,16,0.00
2014,07,26,03,17,0.00
2014,07,26,03,18,0.00
2014,07,26,03,19,0.00
2014,07,26,03,20,0.00
2014,07,26,03,21,0.00
2014,07,26,03,22,0.00
2014,07,26,03,23,0.00
2014,07,26,03,24,0.00
2014,07,26,03,25,0.00
2014,07,26,03,26,0.00
2014,07,26,03,27,0.00
2014,07,26,03,28,0.00
2014,07,26,03,29,0.00
2014,07,26,03,30,0.00
2014,07,26,03,31,0.00
2014,07,26,03,32,0.00
2014,07,26,03,33,0.00
2014,07,26,03,34,0.00
2014,07,26,03,35,0.00
2014,07,26,03,36,0.00
2014,07,26,03,37,0.00
2014,07,26,03,38,0.00
2014,07,26,03,39,0.00
2014,07,26,03,40,0.00
2014,07,26,03,41,0.00
2014,07,26,03,42,0.00
2014,07,26,03,43,0.00
2014,07,26,03,44,0.00
2014,07,26,03,45,0.00
2014,07,26,03,46,0.00
2014,07,26,03,47,0.00
2014,07,26,03,48,0.00
2014,07,26,03,49,0.00
2014,07,26,03,50,0.00
2014,07,26,03,51,0.00
2014,07,26,03,52,0.00
2014,07,26,03,53,0.00
2014,07,26,03,54,0.00
2014,07,26,03,55,0.00
2014,07,26,03,56,0.00
2014,07,26,03,57,0.00
2014,07,26,03,58,0.00
2014,07,26,03,59,0.00
2014,07,26,04,00,0.00
2014,07,26,04,01,0.00
2014,07,26,04,02,0.00
2014,07,26,04,03,0.00
2014,07,26,04,04,0.00
2014,07,26,04,05,0.00
2014,07,26,04,06,0.00
2014,07,26,04,07,0.00
2014,07,26,04,08,0.00
2014,07,26,04,09,0.00
2014,07,26,04,10,0.00
2014,07,26,04,11,0.00
2014,07,26,04,12,0.00
2014,07,26,04,13,0.00
2014,07,26,04,14,0.00
2014,07,26,04,15,0.00
2014,07,26,04,16,0.00
2014,07,26,04,17,0.00
2014,07,26,04,18,0.00
2014,07,26,04,19,0.00
2014,07,26,04,20,0.00
2014,07,26,04,21,0.00
2014,07,26,04,22,0.00
2014,07,26,04,23,0.00
2014,07,26,04,24,0.00
2014,07,26,04,25,0.00
2014,07,26,04,26,0.00
2014,07,26,04,27,0.00
2014,07,26,04,28,0.00
2014,07,26,04,29,0.00
2014,07,26,04,30,0.00
2014,07,26,04,31,0.00
2014,07,26,04,32,0.00
2014,07,26,04,33,0.00
2014,07,26,04,34,0.00
2014,07,26,04,35,0.00
2014,07,26,04,36,0.00
2014,07,26,04,37,0.00
2014,07,26,04,38,0.00
2014,07,26,04,39,0.00
2014,07,26,04,40,0.00
2014,07,26,04,41,0.00
2014,07,26,04,42,0.00
2014,07,26,04,43,0.00
2014,07,26,04,44,0.00
2014,07,26,04,45,0.00
2014,07,26,04,46,0.00
2014,07,26,04,47,0.00
2014,07,26,04,48,0.00
2014,07,26,04,49,0.00
2014,07,26,04,50,0.00
2014,07,26,04,51,0.00
2014,07,26,04,52,0.00
2014,07,26,04,53,0.00
2014,07,26,04,54,0.00
2014,07,26,04,55,0.00
2014,07,26,04,56,0.00
2014,07,26,04,57,0.00
2014,07,26,04,58,0.00
2014,07,26,04,59,0.00
2014,07,26,05,00,0.00
2014,07,26,05,01,0.00
2014,07,26,05,02,0.00
2014,07,26,05,03,0.00
2014,07,26,05,04,0.00
2014,07,26,05,05,0.00
2014,07,26,05,06,0.00
2014,07,26,05,07,0.00
2014,07,26,05,08,0.00
2014,07,26,05,09,0.00
2014,07,26,05,10,0.00
2014,07,26,05,11,0.00
2014,07,26,05,12,0.00
2014,07,26,05,13,0.00
2014,07,26,05,14,0.00
2014,07,26,05,15,0.00
2014,07,26,05,16,0.00
2014,07,26,05,17,0.00
2014,07,26,05,18,0.00
2014,07,26,05,19,0.00
2014,07,26,05,20,0.00
2014,07,26,05,21,0.00
2014,07,26,05,22,0.00
2014,07,26,05,23,0.00
2014,07,26,05,24,0.00
2014,07,26,05,25,0.00
2014,07,26,05,26,0.00
2014,07,26,05,27,0.00
2014,07,26,05,28,0.00
2014,07,26,05,29,0.00
2014,07,26,05,30,0.00
2014,07,26,05,31,0.00
2014,07,26,05,32,0.00
2014,07,26,05,33,0.00
2014,07,26,05,34,0.00
2014,07,26,05,35,0.00
2014,07,26,05,36,0.00
2014,07,26,05,37,0.00
2014,07,26,05,38,0.00
2014,07,26,05,39,0.00
2014,07,26,05,40,0.00
2014,07,26,05,41,0.00
2014,07,26,05,42,0.00
2014,07,26,05,43,0.00
2014,07,26,05,44,0.00
2014,07,26,05,45,0.00
2014,07,26,05,46,0.00
2014,07,26,05,47,0.00
2014,07,26,05,48,0.00
2014,07,26,05,49,0.00
2014,07,26,05,50,0.00
2014,07,26,05,51,0.00
2014,07,26,05,52,0.00
2014,07,26,05,53,0.00
2014,07,26,05,54,0.00
2014,07,26,05,55,0.00
2014,07,26,05,56,0.00
2014,07,26,05,57,0.00
2014,07,26,06,47,0.00
2014,07,26,06,48,0.00
2014,07,26,06,49,0.00
2014,07,26,06,50,0.00
2014,07,26,06,51,0.00
2014,07,26,06,52,0.00
2014,07,26,06,53,0.00
2014,07,26,06,54,0.00
2014,07,26,06,55,0.00
2014,07,26,06,56,0.00
2014,07,26,06,57,0.00
2014,07,26,06,58,0.00
2014,07,26,06,59,0.00
2014,07,26,07,00,0.00
2014,07,26,07,01,0.00
2014,07,26,07,02,0.00
2014,07,26,07,03,0.00
2014,07,26,07,04,0.00
2014,07,26,07,05,0.00
2014,07,26,07,06,0.00
2014,07,26,07,07,0.00
2014,07,26,07,08,0.00
2014,07,26,07,09,0.00
2014,07,26,07,10,0.00
2014,07,26,07,11,0.00
2014,07,26,07,12,0.00
2014,07,26,07,13,0.00
2014,07,26,07,14,0.00
2014,07,26,07,15,0.00
2014,07,26,07,16,0.00
2014,07,26,07,17,0.00
2014,07,26,07,18,0.00
2014,07,26,07,19,0.00
2014,07,26,07,20,0.00
2014,07,26,07,21,0.00
2014,07,26,07,22,0.00
2014,07,26,07,23,0.00
2014,07,26,07,24,0.00
2014,07,26,07,25,0.00
2014,07,26,07,26,0.00
2014,07,26,07,27,0.00
2014,07,26,07,28,0.00
2014,07,26,07,29,0.00
2014,07,26,07,30,0.00
2014,07,26,07,31,0.00
2014,07,26,07,32,0.00
2014,07,26,07,33,0.00
2014,07,26,07,34,0.00
2014,07,26,07,35,0.00
2014,07,26,07,36,0.00
2014,07,26,07,37,0.00
2014,07,26,07,38,0.00
2014,07,26,07,39,0.00
2014,07,26,07,40,0.00
2014,07,26,07,41,0.00
2014,07,26,07,42,0.00
2014,07,26,07,43,0.00
2014,07,26,07,44,0.00
2014,07,26,07,45,0.00
2014,07,26,07,46,0.00
2014,07,26,07,47,0.00
2014,07,26,07,48,0.00
2014,07,26,07,49,0.00
2014,07,26,07,50,0.00
2014,07,26,07,51,0.00
2014,07,26,07,52,0.00
2014,07,26,07,53,0.00
2014,07,26,07,54,0.00
2014,07,26,07,55,0.00
2014,07,26,07,56,0.00
2014,07,26,07,57,0.00
2014,07,26,07,58,0.00
2014,07,26,07,59,0.00
2014,07,26,08,00,0.10
2014,07,26,08,01,0.00
2014,07,26,08,02,0.00
2014,07,26,08,03,0.00
2014,07,26,08,04,0.00
2014,07,26,08,05,0.00
2014,07,26,08,06,0.00
2014,07,26,08,07,0.00
2014,07,26,08,08,0.00
2014,07,26,08,09,0.00
2014,07,26,08,10,0.00
2014,07,26,08,11,0.00
2014,07,26,08,12,0.00
2014,07,26,08,13,0.00
2014,07,26,08,14,0.00
2014,07,26,08,15,0.00
2014,07,26,08,16,0.00
2014,07,26,08,17,0.00
2014,07,26,08,18,0.00
2014,07,26,08,19,0.00
2014,07,26,08,20,0.00
2014,07,26,08,21,0.00
2014,07,26,08,22,0.10
2014,07,26,08,23,0.00
2014,07,26,08,24,0.00
2014,07,26,08,25,0.00
2014,07,26,08,26,0.10
2014,07,26,08,27,0.00
2014,07,26,08,28,0.00
2014,07,26,08,29,0.00
2014,07,26,08,30,0.00
2014,07,26,08,31,0.00
2014,07,26,08,32,0.20
2014,07,26,08,33,0.80
2014,07,26,08,34,0.40
2014,07,26,08,35,0.60
2014,07,26,08,36,0.20
2014,07,26,08,37,1.30
2014,07,26,08,38,3.10
2014,07,26,08,39,2.40
2014,07,26,08,40,1.10
2014,07,26,08,41,1.80
2014,07,26,08,42,1.50
2014,07,26,08,43,1.60
2014,07,26,08,44,1.40
2014,07,26,08,45,0.90
2014,07,26,08,46,1.40
2014,07,26,08,47,2.60
2014,07,26,08,48,2.70
2014,07,26,08,49,1.80
2014,07,26,08,50,2.50
2014,07,26,08,51,0.60
2014,07,26,08,52,0.00
2014,07,26,08,53,0.00
2014,07,26,08,54,0.00
2014,07,26,08,55,0.00
2014,07,26,08,56,0.00
2014,07,26,08,57,0.00
2014,07,26,08,58,0.00
2014,07,26,08,59,0.00
2014,07,26,09,00,1.20
2014,07,26,09,01,5.80
2014,07,26,09,02,5.40
2014,07,26,09,03,5.80
2014,07,26,09,04,5.50
2014,07,26,09,05,3.60
2014,07,26,09,06,4.40
2014,07,26,09,07,4.20
2014,07,26,09,08,3.20
2014,07,26,09,09,3.00
2014,07,26,09,10,3.20
2014,07,26,09,11,3.40
2014,07,26,09,12,4.90
2014,07,26,09,13,2.50
2014,07,26,09,14,4.90
2014,07,26,09,15,5.40
2014,07,26,09,16,7.90
2014,07,26,09,17,8.90
2014,07,26,09,18,7.10
2014,07,26,09,19,6.30
2014,07,26,09,20,6.70
2014,07,26,09,21,5.80
2014,07,26,09,22,5.10
2014,07,26,09,23,5.30
2014,07,26,09,24,8.30
2014,07,26,09,25,8.70
2014,07,26,09,26,7.70
2014,07,26,09,27,7.30
2014,07,26,09,28,8.10
2014,07,26,09,29,8.00
2014,07,26,09,30,8.10
2014,07,26,09,31,6.80
2014,07,26,09,32,7.20
2014,07,26,09,33,2.20
2014,07,26,09,34,5.60
2014,07,26,09,35,5.70
2014,07,26,09,36,8.10
2014,07,26,09,37,8.90
2014,07,26,09,38,7.60
2014,07,26,09,39,7.40
2014,07,26,09,40,2.70
2014,07,26,09,41,7.50
2014,07,26,09,42,3.40
2014,07,26,09,43,4.70
2014,07,26,09,44,3.00
2014,07,26,09,45,5.10
2014,07,26,09,46,4.10
2014,07,26,09,47,3.70
2014,07,26,09,48,5.90
2014,07,26,09,49,6.00
2014,07,26,09,50,6.70
2014,07,26,09,51,7.40
2014,07,26,09,52,4.10
2014,07,26,09,53,4.50
2014,07,26,09,54,0.70
2014,07,26,09,55,3.00
2014,07,26,09,56,1.00
2014,07,26,09,57,6.10
2014,07,26,09,58,7.10
2014,07,26,09,59,4.60
2014,07,26,10,00,2.20
2014,07,26,10,01,1.70
2014,07,26,10,02,5.60
2014,07,26,10,03,4.80
2014,07,26,10,04,4.90
2014,07,26,10,05,4.80
2014,07,26,10,06,7.00
2014,07,26,10,07,11.40
2014,07,26,10,08,9.50
2014,07,26,10,09,7.70
2014,07,26,10,10,7.30
2014,07,26,10,11,5.80
2014,07,26,10,12,7.30
2014,07,26,10,13,7.30
2014,07,26,10,14,5.30
2014,07,26,10,15,8.00
2014,07,26,10,16,7.00
2014,07,26,10,17,1.90
2014,07,26,10,18,1.20
2014,07,26,10,19,2.30
2014,07,26,10,20,0.90
2014,07,26,10,21,3.80
2014,07,26,10,22,5.80
2014,07,26,10,23,5.30
2014,07,26,10,24,5.40
2014,07,26,10,25,3.40
2014,07,26,10,26,5.00
2014,07,26,10,27,3.10
2014,07,26,10,28,4.40
2014,07,26,10,29,3.90
2014,07,26,10,30,4.40
2014,07,26,10,31,4.70
2014,07,26,10,32,3.10
2014,07,26,10,33,2.50
2014,07,26,10,34,2.40
2014,07,26,10,35,4.70
2014,07,26,10,36,5.10
2014,07,26,10,37,0.60
2014,07,26,10,38,0.60
2014,07,26,10,39,2.20
2014,07,26,10,40,4.50
2014,07,26,10,41,3.10
2014,07,26,10,42,2.90
2014,07,26,10,43,3.40
2014,07,26,10,44,1.40
2014,07,26,10,45,0.60
2014,07,26,10,46,3.90
2014,07,26,10,47,5.30
2014,07,26,10,48,1.60
2014,07,26,10,49,2.10
2014,07,26,10,50,1.40
2014,07,26,10,51,2.40
2014,07,26,10,52,2.10
2014,07,26,10,53,3.50
2014,07,26,10,54,1.70
2014,07,26,10,55,5.50
2014,07,26,10,56,3.40
2014,07,26,10,57,1.10
2014,07,26,10,58,3.10
2014,07,26,10,59,1.60
2014,07,26,11,00,3.60
2014,07,26,11,01,3.10
2014,07,26,11,02,1.30
2014,07,26,11,03,3.90
2014,07,26,11,04,4.90
2014,07,26,11,05,5.20
2014,07,26,11,06,2.80
2014,07,26,11,07,1.90
2014,07,26,11,08,0.40
2014,07,26,11,09,2.00
2014,07,26,11,10,4.70
2014,07,26,11,11,0.50
2014,07,26,11,12,3.80
2014,07,26,11,13,7.80
2014,07,26,11,14,4.10
2014,07,26,11,15,1.40
2014,07,26,11,16,2.10
2014,07,26,11,17,3.20
2014,07,26,11,18,1.90
2014,07,26,11,19,5.10
2014,07,26,11,20,6.50
2014,07,26,11,21,4.60
2014,07,26,11,22,2.50
2014,07,26,11,23,0.70
2014,07,26,11,24,0.10
2014,07,26,11,25,3.00
2014,07,26,11,26,1.80
2014,07,26,11,27,3.10
2014,07,26,11,28,3.90
2014,07,26,11,29,7.20
2014,07,26,11,30,4.80
2014,07,26,11,31,0.20
2014,07,26,11,32,0.80
2014,07,26,11,33,3.70
2014,07,26,11,34,1.00
2014,07,26,11,35,3.10
2014,07,26,11,36,2.70
2014,07,26,11,37,6.70
2014,07,26,11,38,1.40
2014,07,26,11,39,3.20
2014,07,26,11,40,6.20
2014,07,26,11,41,4.20
2014,07,26,11,42,3.50
2014,07,26,11,43,3.50
2014,07,26,11,44,1.90
2014,07,26,11,45,5.80
2014,07,26,11,46,5.50
2014,07,26,11,47,4.10
2014,07,26,11,48,1.90
2014,07,26,11,49,1.90
2014,07,26,11,50,0.60
2014,07,26,11,51,1.90
2014,07,26,11,52,6.00
2014,07,26,11,53,1.10
2014,07,26,11,54,2.40
2014,07,26,11,55,0.80
2014,07,26,11,56,2.40
2014,07,26,11,57,8.70
2014,07,26,11,58,14.10
2014,07,26,11,59,13.40
2014,07,26,12,00,11.30
2014,07,26,12,01,10.90
2014,07,26,12,02,6.40
2014,07,26,12,03,5.20
2014,07,26,12,04,0.00
2014,07,26,12,05,3.60
2014,07,26,12,06,0.80
2014,07,26,12,07,1.40
2014,07,26,12,08,3.60
2014,07,26,12,09,7.40
2014,07,26,12,10,12.90
2014,07,26,12,11,13.30
2014,07,26,12,12,13.50
2014,07,26,12,13,5.20
2014,07,26,12,14,2.90
2014,07,26,12,15,6.60
2014,07,26,12,16,11.80
2014,07,26,12,17,6.40
2014,07,26,12,18,1.30
2014,07,26,12,19,5.10
2014,07,26,12,20,6.70
2014,07,26,12,21,5.50
2014,07,26,12,22,7.70
2014,07,26,12,23,2.50
2014,07,26,12,24,10.40
2014,07,26,12,25,8.90
2014,07,26,12,26,7.90
2014,07,26,12,27,6.80
2014,07,26,12,28,3.10
2014,07,26,12,29,6.90
2014,07,26,12,30,4.20
2014,07,26,12,31,4.70
2014,07,26,12,32,9.20
2014,07,26,12,33,8.70
2014,07,26,12,34,12.30
2014,07,26,12,35,9.10
2014,07,26,12,36,10.10
2014,07,26,12,37,14.20
2014,07,26,12,38,12.50
2014,07,26,12,39,11.30
2014,07,26,12,40,12.40
2014,07,26,12,41,11.00
2014,07,26,12,42,4.20
2014,07,26,12,43,10.40
2014,07,26,12,44,17.10
2014,07,26,12,45,14.60
2014,07,26,12,46,15.30
2014,07,26,12,47,12.80
2014,07,26,12,48,15.00
2014,07,26,12,49,13.80
2014,07,26,12,50,15.00
2014,07,26,12,51,15.40
2014,07,26,12,52,13.80
2014,07,26,12,53,15.50
2014,07,26,12,54,14.10
2014,07,26,12,55,10.40
2014,07,26,12,56,7.30
2014,07,26,12,57,7.00
2014,07,26,12,58,5.40
2014,07,26,12,59,10.90
2014,07,26,13,00,9.80
2014,07,26,13,01,9.10
2014,07,26,13,02,2.80
2014,07,26,13,03,1.40
2014,07,26,13,04,1.60
2014,07,26,13,05,4.30
2014,07,26,13,06,4.80
2014,07,26,13,07,3.20
2014,07,26,13,08,0.70
2014,07,26,13,09,1.80
2014,07,26,13,10,7.50
2014,07,26,13,11,9.20
2014,07,26,13,12,8.20
2014,07,26,13,13,4.60
2014,07,26,13,14,4.30
2014,07,26,13,15,8.90
2014,07,26,13,16,7.70
2014,07,26,13,17,3.70
2014,07,26,13,18,2.30
2014,07,26,13,19,4.80
2014,07,26,13,20,2.30
2014,07,26,13,21,4.10
2014,07,26,13,22,2.80
2014,07,26,13,23,2.60
2014,07,26,13,24,6.50
2014,07,26,13,25,2.40
2014,07,26,13,26,6.10
2014,07,26,13,27,9.20
2014,07,26,13,28,7.30
2014,07,26,13,29,5.70
2014,07,26,13,30,3.40
2014,07,26,13,31,5.00
2014,07,26,13,32,2.70
2014,07,26,13,33,3.40
2014,07,26,13,34,2.30
2014,07,26,13,35,13.80
2014,07,26,13,36,12.10
2014,07,26,13,37,5.90
2014,07,26,13,38,1.00
2014,07,26,13,39,0.60
2014,07,26,13,40,7.60
2014,07,26,13,41,11.20
2014,07,26,13,42,6.90
2014,07,26,13,43,2.40
2014,07,26,13,44,6.70
2014,07,26,13,45,2.40
2014,07,26,13,46,9.30
2014,07,26,13,47,12.80
2014,07,26,13,48,15.10
2014,07,26,13,49,9.40
2014,07,26,13,50,4.20
2014,07,26,13,51,10.40
2014,07,26,13,52,16.00
2014,07,26,13,53,15.20
2014,07,26,13,54,11.30
2014,07,26,13,55,11.10
2014,07,26,13,56,10.20
2014,07,26,13,57,8.90
2014,07,26,13,58,2.00
2014,07,26,13,59,1.40
2014,07,26,14,00,4.50
2014,07,26,14,01,10.30
2014,07,26,14,02,3.20
2014,07,26,14,03,8.10
2014,07,26,14,04,14.90
2014,07,26,14,05,13.80
2014,07,26,14,06,5.90
2014,07,26,14,07,18.40
2014,07,26,14,08,14.70
2014,07,26,14,09,14.20
2014,07,26,14,10,11.80
2014,07,26,14,11,9.00
2014,07,26,14,12,10.60
2014,07,26,14,13,8.30
2014,07,26,14,14,1.90
2014,07,26,14,15,5.70
2014,07,26,14,16,5.60
2014,07,26,14,17,6.70
2014,07,26,14,18,5.70
2014,07,26,14,19,10.60
2014,07,26,14,20,7.80
2014,07,26,14,21,7.60
2014,07,26,14,22,12.80
2014,07,26,14,23,11.90
2014,07,26,14,24,17.70
2014,07,26,14,25,13.20
2014,07,26,14,26,14.80
2014,07,26,14,27,15.00
2014,07,26,14,28,11.30
2014,07,26,14,29,12.80
2014,07,26,14,30,15.40
2014,07,26,14,31,15.40
2014,07,26,14,32,18.00
2014,07,26,14,33,16.80
2014,07,26,14,34,16.70
2014,07,26,14,35,11.60
2014,07,26,14,36,11.40
2014,07,26,14,37,7.60
2014,07,26,14,38,12.20
2014,07,26,14,39,16.70
2014,07,26,14,40,13.20
2014,07,26,14,41,9.40
2014,07,26,14,42,11.40
2014,07,26,14,43,13.10
2014,07,26,14,44,15.90
2014,07,26,14,45,13.60
2014,07,26,14,46,11.90
2014,07,26,14,47,10.50
2014,07,26,14,48,10.60
2014,07,26,14,49,10.20
2014,07,26,14,50,5.50
2014,07,26,14,51,2.60
2014,07,26,14,52,7.90
2014,07,26,14,53,14.60
2014,07,26,14,54,9.50
2014,07,26,14,55,7.60
2014,07,26,14,56,9.90
2014,07,26,14,57,16.10
2014,07,26,14,58,6.40
2014,07,26,14,59,9.80
2014,07,26,15,00,16.10
2014,07,26,15,01,7.90
2014,07,26,15,02,11.30
2014,07,26,15,03,11.80
2014,07,26,15,04,13.60
2014,07,26,15,05,14.60
2014,07,26,15,06,14.60
2014,07,26,15,07,10.40
2014,07,26,15,08,10.60
2014,07,26,15,09,4.60
2014,07,26,15,10,1.90
2014,07,26,15,11,2.50
2014,07,26,15,12,8.20
2014,07,26,15,13,6.10
2014,07,26,15,14,4.60
2014,07,26,15,15,7.60
2014,07,26,15,16,6.80
2014,07,26,15,17,9.00
2014,07,26,15,18,6.70
2014,07,26,15,19,12.10
2014,07,26,15,20,15.70
2014,07,26,15,21,9.70
2014,07,26,15,22,10.40
2014,07,26,15,23,5.20
2014,07,26,15,24,8.20
2014,07,26,15,25,11.80
2014,07,26,15,26,14.90
2014,07,26,15,27,6.70
2014,07,26,15,28,16.00
2014,07,26,15,29,15.30
2014,07,26,15,30,10.10
2014,07,26,15,31,3.60
2014,07,26,15,32,2.50
2014,07,26,15,33,2.80
2014,07,26,15,34,4.40
2014,07,26,15,35,6.80
2014,07,26,15,36,12.20
2014,07,26,15,37,13.00
2014,07,26,15,38,15.90
2014,07,26,15,39,8.40
2014,07,26,15,40,14.60
2014,07,26,15,41,14.60
2014,07,26,15,42,9.60
2014,07,26,15,43,11.10
2014,07,26,15,44,16.90
2014,07,26,15,45,12.60
2014,07,26,15,46,13.70
2014,07,26,15,47,10.70
2014,07,26,15,48,17.70
2014,07,26,15,49,10.00
2014,07,26,15,50,14.30
2014,07,26,15,51,12.30
2014,07,26,15,52,7.80
2014,07,26,15,53,13.90
2014,07,26,15,54,6.80
2014,07,26,15,55,8.60
2014,07,26,15,56,9.70
2014,07,26,15,57,8.90
2014,07,26,15,58,5.70
2014,07,26,15,59,5.00
2014,07,26,16,00,9.30
2014,07,26,16,01,8.80
2014,07,26,16,02,7.20
2014,07,26,16,03,8.20
2014,07,26,16,04,11.20
2014,07,26,16,05,11.30
2014,07,26,16,06,6.90
2014,07,26,16,07,8.20
2014,07,26,16,08,6.70
2014,07,26,16,09,15.10
2014,07,26,16,10,9.90
2014,07,26,16,11,9.50
2014,07,26,16,12,11.60
2014,07,26,16,13,11.80
2014,07,26,16,14,10.10
2014,07,26,16,15,7.50
2014,07,26,16,16,10.80
2014,07,26,16,17,10.00
2014,07,26,16,18,13.80
2014,07,26,16,19,13.40
2014,07,26,16,20,8.10
2014,07,26,16,21,8.40
2014,07,26,16,22,4.80
2014,07,26,16,23,2.80
2014,07,26,16,24,1.20
2014,07,26,16,25,5.90
2014,07,26,16,26,9.30
2014,07,26,16,27,8.30
2014,07,26,16,28,10.50
2014,07,26,16,29,13.40
2014,07,26,16,30,8.30
2014,07,26,16,31,8.00
2014,07,26,16,32,12.50
2014,07,26,16,33,10.30
2014,07,26,16,34,12.20
2014,07,26,16,35,13.30
2014,07,26,16,36,12.30
2014,07,26,16,37,10.80
2014,07,26,16,38,10.20
2014,07,26,16,39,7.60
2014,07,26,16,40,13.60
2014,07,26,16,41,10.80
2014,07,26,16,42,9.70
2014,07,26,16,43,9.70
2014,07,26,16,44,14.70
2014,07,26,16,45,12.70
2014,07,26,16,46,11.80
2014,07,26,16,47,17.90
2014,07,26,16,48,13.40
2014,07,26,16,49,8.80
2014,07,26,16,50,9.70
2014,07,26,16,51,16.00
2014,07,26,16,52,15.80
2014,07,26,16,53,12.80
2014,07,26,16,54,15.90
2014,07,26,16,55,14.10
2014,07,26,16,56,17.50
2014,07,26,16,57,20.00
2014,07,26,16,58,17.00
2014,07,26,16,59,15.50
2014,07,26,17,00,15.10
2014,07,26,17,01,15.80
2014,07,26,17,02,20.10
2014,07,26,17,03,18.40
2014,07,26,17,04,19.10
2014,07,26,17,05,20.70
2014,07,26,17,06,19.40
2014,07,26,17,07,17.80
2014,07,26,17,08,22.60
2014,07,26,17,09,16.50
2014,07,26,17,10,19.80
2014,07,26,17,11,15.20
2014,07,26,17,12,19.10
2014,07,26,17,13,11.70
2014,07,26,17,14,19.90
2014,07,26,17,15,19.40
2014,07,26,17,16,18.70
2014,07,26,17,17,20.00
2014,07,26,17,18,18.20
2014,07,26,17,19,17.70
2014,07,26,17,20,17.70
2014,07,26,17,21,17.70
2014,07,26,17,22,17.70
2014,07,26,17,23,17.80
2014,07,26,17,24,18.00
2014,07,26,17,25,16.70
2014,07,26,17,26,18.30
2014,07,26,17,27,17.90
2014,07,26,17,28,19.00
2014,07,26,17,29,20.80
2014,07,26,17,30,14.40
2014,07,26,17,31,16.30
2014,07,26,17,32,15.20
2014,07,26,17,33,12.40
2014,07,26,17,34,13.40
2014,07,26,17,35,21.80
2014,07,26,17,36,16.00
2014,07,26,17,37,18.80
2014,07,26,17,38,19.10
2014,07,26,17,39,18.10
2014,07,26,17,40,17.40
2014,07,26,17,41,19.30
2014,07,26,17,42,20.10
2014,07,26,17,43,18.60
2014,07,26,17,44,18.90
2014,07,26,17,45,18.70
2014,07,26,17,46,18.10
2014,07,26,17,47,17.20
2014,07,26,17,48,16.10
2014,07,26,17,49,19.00
2014,07,26,17,50,20.80
2014,07,26,17,51,15.40
2014,07,26,17,52,15.90
2014,07,26,17,53,18.70
2014,07,26,17,54,13.70
2014,07,26,17,55,10.70
2014,07,26,17,56,18.90
2014,07,26,17,57,14.70
2014,07,26,17,58,12.80
2014,07,26,17,59,13.00
2014,07,26,18,00,19.10
2014,07,26,18,01,16.40
2014,07,26,18,02,13.60
2014,07,26,18,03,9.90
2014,07,26,18,04,15.10
2014,07,26,18,05,20.30
2014,07,26,18,06,19.40
2014,07,26,18,07,16.20
2014,07,26,18,08,14.10
2014,07,26,18,09,10.80
2014,07,26,18,10,9.80
2014,07,26,18,11,11.70
2014,07,26,18,12,16.30
2014,07,26,18,13,18.40
2014,07,26,18,14,16.20
2014,07,26,18,15,18.70
2014,07,26,18,16,17.50
2014,07,26,18,17,19.80
2014,07,26,18,18,18.90
2014,07,26,18,19,11.60
2014,07,26,18,20,14.80
2014,07,26,18,21,12.30
2014,07,26,18,22,13.00
2014,07,26,18,23,16.00
2014,07,26,18,24,13.80
2014,07,26,18,25,15.00
2014,07,26,18,26,15.80
2014,07,26,18,27,17.50
2014,07,26,18,28,19.50
2014,07,26,18,29,17.40
2014,07,26,18,30,20.70
2014,07,26,18,31,16.80
2014,07,26,18,32,18.00
2014,07,26,18,33,17.00
2014,07,26,18,34,12.30
2014,07,26,18,35,12.40
2014,07,26,18,36,15.40
2014,07,26,18,37,14.40
2014,07,26,18,38,15.70
2014,07,26,18,39,15.00
2014,07,26,18,40,9.30
2014,07,26,18,41,13.20
2014,07,26,18,42,13.30
2014,07,26,18,43,14.40
2014,07,26,18,44,13.60